Total_Precipitation_Accumulation
0.57 0.83 1.16 1.55 2.06 2.65 3.11 3.14 2.52 2.02 1.71 1.43 1.07 0.91 0.88 0.80 0.71 0.69 0.64 0.60 0.56 0.51 0.46 0.40 0.39 0.35 0.32 0.32 0.32 0.35 0.38 0.35 0.34 0.32 0.26 0.21 0.18 0.18 0.20 0.17 0.14 0.16 0.25
0.81 1.11 1.47 1.62 1.54 1.66 1.75 1.38 1.10 0.92 0.78 0.68 0.51 0.41 0.37 0.35 0.34 0.34 0.35 0.33 0.36 0.40 0.38 0.36 0.35 0.33 0.30 0.26 0.27 0.28 0.26 0.24 0.24 0.23 0.18 0.13 0.12 0.12 0.09 0.13 0.13 0.13 0.23
1.35 1.52 1.36 1.15 1.07 1.04 0.90 0.61 0.47 0.47 0.41 0.33 0.25 0.22 0.21 0.21 0.21 0.21 0.22 0.22 0.23 0.26 0.29 0.32 0.35 0.34 0.30 0.27 0.26 0.24 0.21 0.18 0.16 0.16 0.13 0.09 0.06 0.06 0.07 0.10 0.13 0.13 0.17
1.59 1.39 0.75 0.47 0.46 0.47 0.48 0.51 0.52 0.41 0.30 0.26 0.19 0.14 0.13 0.13 0.13 0.14 0.15 0.17 0.16 0.16 0.18 0.23 0.29 0.29 0.30 0.29 0.22 0.21 0.24 0.21 0.14 0.13 0.12 0.08 0.08 0.10 0.08 0.10 0.13 0.16 0.15
0.82 0.47 0.19 0.13 0.18 0.28 0.47 0.68 0.66 0.45 0.31 0.27 0.23 0.21 0.19 0.18 0.17 0.17 0.18 0.20 0.20 0.20 0.17 0.17 0.22 0.26 0.32 0.36 0.32 0.29 0.26 0.23 0.17 0.14 0.16 0.13 0.08 0.11 0.13 0.10 0.11 0.15 0.09
0.32 0.16 0.10 0.14 0.21 0.26 0.33 0.42 0.49 0.56 0.51 0.46 0.37 0.34 0.33 0.31 0.28 0.26 0.25 0.25 0.26 0.28 0.27 0.27 0.29 0.33 0.32 0.33 0.34 0.36 0.33 0.29 0.25 0.17 0.17 0.22 0.13 0.07 0.11 0.11 0.12 0.12 0.04
0.16 0.18 0.19 0.22 0.19 0.16 0.15 0.15 0.19 0.29 0.36 0.40 0.42 0.42 0.41 0.36 0.32 0.28 0.24 0.27 0.25 0.27 0.29 0.29 0.33 0.37 0.36 0.34 0.32 0.32 0.36 0.40 0.37 0.26 0.17 0.16 0.17 0.12 0.09 0.08 0.07 0.08 0.08
0.04 0.07 0.08 0.07 0.07 0.07 0.07 0.07 0.07 0.08 0.11 0.14 0.18 0.22 0.28 0.27 0.26 0.30 0.24 0.25 0.29 0.29 0.27 0.25 0.25 0.27 0.31 0.32 0.29 0.26 0.27 0.32 0.39 0.38 0.35 0.30 0.19 0.17 0.11 0.08 0.09 0.11 0.15
0.01 0.01 0.02 0.03 0.04 0.03 0.04 0.04 0.04 0.04 0.04 0.05 0.05 0.06 0.11 0.15 0.16 0.17 0.16 0.17 0.24 0.26 0.24 0.22 0.20 0.19 0.22 0.26 0.27 0.25 0.26 0.26 0.27 0.33 0.43 0.43 0.32 0.24 0.19 0.17 0.17 0.25 0.22
0.01 0.00 0.01 0.01 0.01 0.02 0.02 0.03 0.04 0.03 0.03 0.02 0.02 0.02 0.04 0.08 0.10 0.11 0.12 0.14 0.18 0.21 0.19 0.16 0.13 0.13 0.13 0.16 0.20 0.23 0.27 0.31 0.34 0.36 0.41 0.49 0.50 0.43 0.36 0.32 0.30 0.36 0.34
0.00 0.01 0.00 0.00 0.01 0.01 0.01 0.02 0.02 0.02 0.02 0.02 0.01 0.01 0.01 0.02 0.06 0.10 0.15 0.18 0.19 0.20 0.18 0.16 0.13 0.11 0.11 0.13 0.16 0.19 0.25 0.31 0.40 0.49 0.50 0.48 0.58 0.62 0.56 0.52 0.46 0.44 0.45
0.00 0.00 0.00 0.00 0.01 0.01 0.01 0.01 0.01 0.01 0.01 0.00 0.00 0.00 0.00 0.00 0.01 0.03 0.07 0.14 0.19 0.20 0.20 0.18 0.16 0.11 0.09 0.10 0.12 0.14 0.18 0.26 0.36 0.52 0.68 0.69 0.64 0.61 0.57 0.54 0.53 0.53 0.57
0.00 0.00 0.00 0.00 0.00 0.00 0.00 0.00 0.00 0.00 0.00 0.00 0.00 0.00 0.00 0.01 0.01 0.01 0.01 0.03 0.09 0.15 0.18 0.18 0.17 0.15 0.13 0.11 0.10 0.10 0.12 0.17 0.22 0.34 0.57 0.76 0.89 0.82 0.62 0.51 0.47 0.51 0.59
0.00 0.00 0.00 0.00 0.00 0.00 0.00 0.00 0.00 0.00 0.00 0.00 0.00 0.00 0.01 0.02 0.03 0.03 0.03 0.03 0.04 0.08 0.13 0.17 0.19 0.17 0.16 0.14 0.12 0.12 0.12 0.13 0.14 0.21 0.31 0.44 0.65 0.82 0.86 0.73 0.58 0.54 0.57
0.00 0.00 0.00 0.00 0.00 0.00 0.00 0.00 0.00 0.00 0.00 0.01 0.01 0.01 0.01 0.02 0.03 0.04 0.05 0.06 0.06 0.07 0.13 0.19 0.21 0.20 0.18 0.12 0.13 0.16 0.13 0.14 0.14 0.15 0.19 0.22 0.30 0.44 0.61 0.73 0.77 0.72 0.63
0.00 0.00 0.00 0.00 0.00 0.00 0.00 0.00 0.00 0.00 0.01 0.01 0.02 0.02 0.03 0.04 0.05 0.05 0.05 0.06 0.08 0.12 0.15 0.19 0.23 0.23 0.17 0.12 0.11 0.13 0.16 0.19 0.21 0.21 0.20 0.17 0.17 0.21 0.32 0.45 0.59 0.73 0.74
0.00 0.00 0.00 0.00 0.00 0.00 0.00 0.01 0.01 0.01 0.01 0.01 0.01 0.02 0.04 0.06 0.07 0.07 0.08 0.11 0.14 0.16 0.18 0.19 0.27 0.31 0.30 0.21 0.13 0.09 0.15 0.20 0.25 0.28 0.28 0.19 0.11 0.14 0.18 0.25 0.35 0.44 0.56
0.00 0.00 0.00 0.00 0.00 0.00 0.00 0.01 0.01 0.01 0.01 0.02 0.02 0.04 0.06 0.07 0.09 0.12 0.15 0.18 0.21 0.21 0.21 0.22 0.27 0.36 0.36 0.30 0.21 0.14 0.16 0.22 0.26 0.29 0.29 0.25 0.19 0.16 0.16 0.19 0.22 0.27 0.32
0.00 0.00 0.00 0.00 0.00 0.00 0.01 0.01 0.01 0.02 0.02 0.03 0.05 0.07 0.09 0.13 0.16 0.18 0.22 0.25 0.26 0.24 0.23 0.22 0.26 0.34 0.40 0.35 0.24 0.20 0.22 0.25 0.27 0.28 0.29 0.29 0.25 0.18 0.12 0.16 0.18 0.21 0.25
0.00 0.00 0.00 0.00 0.00 0.02 0.03 0.03 0.04 0.05 0.06 0.07 0.08 0.10 0.13 0.19 0.23 0.27 0.31 0.33 0.33 0.29 0.25 0.22 0.24 0.30 0.41 0.41 0.27 0.23 0.25 0.29 0.32 0.40 0.41 0.35 0.31 0.24 0.13 0.13 0.15 0.16 0.19
0.00 0.00 0.00 0.00 0.01 0.03 0.06 0.08 0.09 0.10 0.10 0.11 0.11 0.13 0.17 0.22 0.24 0.27 0.31 0.33 0.33 0.32 0.31 0.27 0.27 0.29 0.34 0.40 0.30 0.26 0.29 0.34 0.40 0.47 0.53 0.46 0.36 0.24 0.16 0.13 0.15 0.13 0.16
0.00 0.00 0.00 0.01 0.02 0.04 0.09 0.12 0.12 0.11 0.11 0.12 0.13 0.15 0.16 0.17 0.17 0.24 0.28 0.32 0.35 0.34 0.32 0.30 0.30 0.31 0.28 0.27 0.30 0.22 0.22 0.28 0.40 0.51 0.65 0.65 0.54 0.39 0.26 0.18 0.15 0.11 0.11
0.00 0.00 0.00 0.02 0.03 0.06 0.11 0.13 0.12 0.12 0.12 0.13 0.14 0.14 0.15 0.17 0.22 0.28 0.30 0.32 0.34 0.33 0.29 0.26 0.31 0.35 0.33 0.25 0.21 0.19 0.14 0.17 0.32 0.47 0.69 0.78 0.68 0.55 0.42 0.31 0.23 0.16 0.12
0.00 0.01 0.02 0.05 0.06 0.07 0.08 0.10 0.11 0.14 0.17 0.18 0.17 0.17 0.19 0.21 0.26 0.34 0.36 0.39 0.38 0.32 0.27 0.24 0.30 0.33 0.33 0.28 0.24 0.23 0.17 0.18 0.28 0.34 0.46 0.62 0.69 0.64 0.58 0.46 0.33 0.23 0.17
0.01 0.03 0.06 0.09 0.09 0.08 0.07 0.07 0.12 0.20 0.25 0.25 0.22 0.22 0.23 0.25 0.27 0.32 0.35 0.31 0.32 0.24 0.22 0.23 0.31 0.34 0.34 0.28 0.23 0.29 0.31 0.30 0.33 0.34 0.43 0.57 0.68 0.69 0.66 0.60 0.48 0.36 0.28
0.04 0.08 0.12 0.13 0.11 0.08 0.07 0.09 0.15 0.24 0.32 0.32 0.26 0.24 0.24 0.27 0.30 0.29 0.30 0.24 0.15 0.12 0.11 0.12 0.16 0.21 0.19 0.12 0.09 0.14 0.19 0.20 0.22 0.27 0.41 0.53 0.65 0.73 0.73 0.71 0.63 0.49 0.39